Orbital Elements at Epoch 2459000.5 (2020-May-31.0) TDB
Reference: JPL 11 (heliocentric ecliptic J2000)
Element | Value | Uncertainty (1-sigma) | Units |
e | .107652843053617 | 6.6265e-08 | |
a | 2.598405052218345 | 3.6997e-08 | au |
q | 2.318679360942158 | 1.8923e-07 | au |
i | 10.18436328044839 | 1.1488e-05 | deg |
node | 170.4744918706364 | 4.5857e-05 | deg |
peri | 251.2672691066775 | 7.8795e-05 | deg |
M | 331.2650666633887 | 6.9108e-05 | deg |
tp | 2459122.614264494730 (2020-Sep-30.11426449) | 0.00029497 | TDB |
period | 1529.884712211662 4.19 | 3.2675e-05 8.946e-08 | d yr |
n | .2353118487468051 | 5.0257e-09 | deg/d |
Q | 2.878130743494532 | 4.098e-08 | au |
|
| | Orbit Determination Parameters
Additional Information
|